"Pseudo-MPEC" for P11DBYf

Created 2023 Mar 26 4:22:09 UT using Find_Orb

Click here for an explanation of pseudo-MPECs

 
 Astrometry: 
     P11DBYf* C2023 03 18v]84+hPrR_Cbpc^-IoxAstrometry9M.v4+u^q.5redacted;.!IF51
     P11DBYf  C2023 03 18miSfuclickm/^cMv[i^*_\xfDNUP#9G2N03R#V+iRxSjfherewIJF51
     P11DBYf  C2023 03 18\.`4O+b*[fw\xforleexplanation2pA=9splcfr*cBTy*o33TPqF51

Station data:
(F51) Pan-STARRS 1, Haleakala  (N20.707234 W156.255910)  US/Hawaii.
   Observers J. Bulger, T. Lowe, A. Schultz, M. Willman. Measurers K.
   Chambers, S. Chastel, T. de Boer, L. Denneau, J. Fairlamb, H. Flewelling,
   M. Huber, C.-C. Lin, E. Magnier, Y. Ramanjooloo, R. Wainscoat, R. Weryk.
   1.8-m Ritchey-Chrétien + CCD.

Orbital elements:  P11DBYf
   Perihelion 2024 Jan 4.29251 +/- 320 TT =  7:01:13 (JD 2460313.79251)
Epoch 2023 Mar 18.0 TT = JDT 2460021.5   Earth MOID: 0.6906      AutoNEOCP
M 244.37263889 +/- 80               (J2000 ecliptic)
n   0.39558782 +/- 0.236            Peri.  175.29660 +/- 70
a   1.83783887 +/- 0.732            Node   122.47445 +/- 42
e   0.0716350 +/- 0.259             Incl.   20.82870 +/- 32
P   2.49/910.02d           H 19.92  G  0.15   U 11.8  SR
q 1.70618515 +/- 0.919    Q 1.96949260 +/- 33.9
From 3 observations 2023 Mar. 18 (48.8 min); mean residual 0".04
Residuals in arcseconds: 
230318 F51  .05-  .00     230318 F51  .08+  .00     230318 F51  .03-  .00     

Ephemerides (geocentric):
Date (UTC) HH   RA             Dec           delta  r     elong  mag " sig PA
---- --------  ------------   ------------  ------ ------ -----  --- --------
2023 03 26 04  12 09 21.431   +35 57 44.45  1.0074 1.8957 142.0 22.3 9981 143
2023 03 26 05  12 09 18.729   +35 58 11.06  1.0075 1.8957 142.0 22.3 174' 141
2023 03 26 06  12 09 16.028   +35 58 37.61  1.0077 1.8957 142.0 22.3 184' 139
2023 03 26 07  12 09 13.328   +35 59 04.09  1.0078 1.8956 142.0 22.3 196' 136
2023 03 26 08  12 09 10.627   +35 59 30.51  1.0079 1.8956 141.9 22.3 209' 135
2023 03 26 09  12 09 07.928   +35 59 56.87  1.0080 1.8956 141.9 22.3 227' 133
2023 03 26 10  12 09 05.228   +36 00 23.15  1.0081 1.8955 141.9 22.3 249' 133
2023 03 26 11  12 09 02.529   +36 00 49.38  1.0082 1.8955 141.8 22.3 278' 133
2023 03 26 12  12 08 59.831   +36 01 15.53  1.0083 1.8955 141.8 22.3 320' 136
2023 03 26 13  12 08 57.133   +36 01 41.62  1.0084 1.8954 141.8 22.3 389' 141
2023 03 26 14  12 08 54.436   +36 02 07.65  1.0086 1.8954 141.8 22.3 506' 150
2023 03 26 15  12 08 51.739   +36 02 33.61  1.0087 1.8954 141.7 22.3 643' 157
2023 03 26 16  12 08 49.042   +36 02 59.50  1.0088 1.8953 141.7 22.3 730' 163
2023 03 26 17  12 08 46.346   +36 03 25.33  1.0089 1.8953 141.7 22.3 774' 167
2023 03 26 18  12 08 43.651   +36 03 51.09  1.0090 1.8953 141.7 22.3 798' 171
2023 03 26 19  12 08 40.956   +36 04 16.79  1.0091 1.8952 141.6 22.3 813' 174
2023 03 26 20  12 08 38.262   +36 04 42.42  1.0093 1.8952 141.6 22.3 826' 178
2023 03 26 21  12 08 35.568   +36 05 07.98  1.0094 1.8952 141.6 22.3 837'   1
2023 03 26 22  12 08 32.875   +36 05 33.48  1.0095 1.8951 141.6 22.3 848'   4
2023 03 26 23  12 08 30.182   +36 05 58.92  1.0096 1.8951 141.5 22.3 858'   6
2023 03 27 00  12 08 27.490   +36 06 24.28  1.0097 1.8951 141.5 22.3 868'   8
2023 03 27 01  12 08 24.799   +36 06 49.59  1.0098 1.8950 141.5 22.3 878'  10
2023 03 27 02  12 08 22.108   +36 07 14.82  1.0100 1.8950 141.4 22.3 887'  11
2023 03 27 03  12 08 19.418   +36 07 39.99  1.0101 1.8950 141.4 22.4 895'  13
2023 03 27 04  12 08 16.728   +36 08 05.10  1.0102 1.8949 141.4 22.4 903'  14
2023 03 27 05  12 08 14.039   +36 08 30.14  1.0103 1.8949 141.4 22.4 910'  14
2023 03 27 06  12 08 11.351   +36 08 55.11  1.0104 1.8949 141.3 22.4 917'  15
2023 03 27 07  12 08 08.663   +36 09 20.02  1.0105 1.8948 141.3 22.4 923'  16
2023 03 27 08  12 08 05.976   +36 09 44.86  1.0107 1.8948 141.3 22.4 930'  16
2023 03 27 09  12 08 03.290   +36 10 09.63  1.0108 1.8948 141.3 22.4 935'  17
2023 03 27 10  12 08 00.604   +36 10 34.34  1.0109 1.8947 141.2 22.4 941'  17
2023 03 27 11  12 07 57.919   +36 10 58.98  1.0110 1.8947 141.2 22.4 947'  17
2023 03 27 12  12 07 55.235   +36 11 23.56  1.0111 1.8947 141.2 22.4 952'  18
2023 03 27 13  12 07 52.551   +36 11 48.07  1.0113 1.8946 141.1 22.4 957'  18
2023 03 27 14  12 07 49.868   +36 12 12.52  1.0114 1.8946 141.1 22.4 963'  18
2023 03 27 15  12 07 47.186   +36 12 36.90  1.0115 1.8946 141.1 22.4 968'  18
2023 03 27 16  12 07 44.505   +36 13 01.21  1.0116 1.8945 141.1 22.4 973'  18
2023 03 27 17  12 07 41.824   +36 13 25.46  1.0118 1.8945 141.0 22.4 978'  19
2023 03 27 18  12 07 39.144   +36 13 49.64  1.0119 1.8945 141.0 22.4 984'  19
2023 03 27 19  12 07 36.465   +36 14 13.75  1.0120 1.8944 141.0 22.4 989'  19
2023 03 27 20  12 07 33.786   +36 14 37.80  1.0121 1.8944 141.0 22.4 995'  19
2023 03 27 21  12 07 31.109   +36 15 01.79  1.0123 1.8944 140.9 22.4  17d  19
2023 03 27 22  12 07 28.432   +36 15 25.70  1.0124 1.8943 140.9 22.4  17d  19
2023 03 27 23  12 07 25.755   +36 15 49.55  1.0125 1.8943 140.9 22.4  17d  19
2023 03 28 00  12 07 23.080   +36 16 13.34  1.0126 1.8943 140.8 22.4  17d  19
2023 03 28 01  12 07 20.406   +36 16 37.06  1.0127 1.8942 140.8 22.4  17d  20
2023 03 28 02  12 07 17.732   +36 17 00.71  1.0129 1.8942 140.8 22.4  17d  20
2023 03 28 03  12 07 15.059   +36 17 24.30  1.0130 1.8942 140.8 22.4  17d 163